TimeCDT,TemperatureF,Dew PointF,Humidity,Sea Level PressureIn,VisibilityMPH,Wind Direction,Wind SpeedMPH,Gust SpeedMPH,PrecipitationIn,Events,Conditions,WindDirDegrees,DateUTC
12:53 AM,54.0,50.0,86,30.24,10.0,East,8.1,-,0.01,,Overcast,90,2013-05-25 05:53:00
1:53 AM,54.0,48.9,83,30.24,10.0,SE,9.2,-,0.00,Rain,Light Rain,140,2013-05-25 06:53:00
2:53 AM,54.0,48.9,83,30.22,10.0,ESE,10.4,-,0.00,,Overcast,110,2013-05-25 07:53:00
3:53 AM,54.0,48.9,83,30.22,10.0,ESE,10.4,-,N/A,,Overcast,110,2013-05-25 08:53:00
4:53 AM,54.0,48.0,80,30.23,10.0,ESE,9.2,-,N/A,,Overcast,110,2013-05-25 09:53:00
5:53 AM,54.0,46.9,77,30.22,10.0,East,11.5,-,N/A,,Mostly Cloudy,100,2013-05-25 10:53:00
6:53 AM,55.0,46.0,72,30.24,10.0,ESE,12.7,-,N/A,,Overcast,120,2013-05-25 11:53:00
7:53 AM,55.9,46.0,69,30.22,10.0,ESE,12.7,-,N/A,,Overcast,110,2013-05-25 12:53:00
8:53 AM,57.0,46.0,67,30.23,10.0,ESE,15.0,19.6,N/A,,Overcast,110,2013-05-25 13:53:00
9:53 AM,57.9,46.0,65,30.23,10.0,SE,18.4,24.2,N/A,,Overcast,140,2013-05-25 14:53:00
10:53 AM,60.1,46.9,62,30.23,10.0,SE,17.3,21.9,N/A,,Overcast,140,2013-05-25 15:53:00
11:53 AM,60.1,45.0,57,30.25,10.0,SE,17.3,23.0,N/A,,Overcast,140,2013-05-25 16:53:00
12:53 PM,61.0,46.9,60,30.25,10.0,SSE,17.3,23.0,N/A,,Overcast,160,2013-05-25 17:53:00
1:53 PM,57.9,46.9,67,30.25,10.0,SSE,19.6,27.6,N/A,,Overcast,150,2013-05-25 18:53:00
2:53 PM,57.9,46.9,67,30.25,10.0,SE,18.4,27.6,N/A,,Overcast,130,2013-05-25 19:53:00
3:01 PM,57.2,46.4,67,30.24,10.0,SE,20.7,25.3,N/A,,Overcast,130,2013-05-25 20:01:00
3:32 PM,57.2,46.4,67,30.24,10.0,SE,16.1,24.2,N/A,,Overcast,130,2013-05-25 20:32:00
3:53 PM,57.9,46.9,67,30.25,10.0,SE,17.3,24.2,N/A,,Overcast,130,2013-05-25 20:53:00
4:53 PM,57.9,46.9,67,30.24,10.0,SE,16.1,21.9,N/A,,Overcast,140,2013-05-25 21:53:00
5:53 PM,57.0,46.9,69,30.24,10.0,SE,16.1,-,N/A,,Overcast,140,2013-05-25 22:53:00
6:32 PM,57.2,46.4,67,30.23,10.0,SE,12.7,20.7,N/A,,Overcast,130,2013-05-25 23:32:00
6:53 PM,55.9,46.0,69,30.23,10.0,SE,11.5,-,N/A,,Overcast,130,2013-05-25 23:53:00
7:53 PM,55.9,46.0,69,30.24,10.0,SE,11.5,-,N/A,,Overcast,130,2013-05-26 00:53:00
8:53 PM,55.0,46.0,72,30.23,10.0,SE,10.4,-,N/A,,Overcast,130,2013-05-26 01:53:00
9:53 PM,55.9,46.0,69,30.24,10.0,SE,9.2,-,N/A,,Overcast,130,2013-05-26 02:53:00
10:53 PM,55.9,45.0,67,30.25,10.0,SE,11.5,18.4,N/A,,Overcast,130,2013-05-26 03:53:00
11:53 PM,55.9,39.9,55,30.22,10.0,ESE,13.8,20.7,N/A,,Overcast,120,2013-05-26 04:53:00